Home > Time Zones > World Clock > Weather > Serbia > Niš > Past weeks

Flag for Serbia Weather past 2 weeks in Niš, Serbia

Now
61 °F

Passing clouds.


Feels Like: 61 °F
Forecast: 42 / 62 °F
Wind: 20 mph from Northwest

Location: Nis Airport

Current Time: Apr 21, 2015 at 4:03:28 PM

Latest Report: Apr 21, 2015 at 3:30 PM


Visibility: N/A

Pressure: 30.07 "Hg

Humidity: 29%

Dew point: 28 °F

Location of NišLocation

Historic Weather in Niš — Graph

°F

Niš temperature yesterday

Maximum temperature yesterday: 61 °F (at 3:30 PM)
Minimum temperature yesterday: 34 °F (at 5:00 AM)
Average temperature yesterday: 48 °F

Past Weeks' High & Low Weather Summary

 TemperatureHumidityPressure
High79 °F (Apr 16, 3:00 PM)93% (Apr 6, 4:00 PM)30.45 "Hg (Apr 6, 4:00 PM)
Low34 °F (Apr 20, 5:00 AM)14% (Apr 11, 5:30 PM)29.86 "Hg (Apr 17, 5:30 PM)
Average53 °F56%30.14 "Hg
* Reported Apr 6 3:00 PM — Apr 21 3:00 PM, Niš, Weather by CustomWeather, © 2015

Note: Actual official high and low records may vary slightly from our data, if they occured in-between our weather recording intervals... More about our weather records

Advertising

Niš weather history for previous 24 hours

 ConditionsComfort  
Time TempWeatherWind HumidityBarometerVisibility
3:00 PM
Tue, Apr 21
61 °FPassing clouds.18 mph31%30.07 "HgN/A
2:30 PM59 °FPassing clouds.23 mph34%30.09 "HgN/A
2:00 PM61 °FPassing clouds.23 mph31%30.09 "HgN/A
1:30 PM59 °FPassing clouds.21 mph34%30.09 "HgN/A
1:00 PM59 °FPassing clouds.17 mph34%30.09 "HgN/A
12:30 PM57 °FPassing clouds.21 mph33%30.09 "HgN/A
12:00 PM57 °FPassing clouds.18 mph36%30.09 "HgN/A
11:30 AM57 °FPassing clouds.20 mph36%30.09 "HgN/A
11:00 AM57 °FPassing clouds.21 mph36%30.09 "HgN/A
10:30 AM55 °FPassing clouds.18 mph38%30.09 "HgN/A
10:00 AM55 °FPassing clouds.20 mph36%30.09 "HgN/A
9:30 AM54 °FPassing clouds.22 mph41%30.09 "HgN/A
9:00 AM54 °FPassing clouds.21 mph41%30.09 "HgN/A
8:30 AM52 °FPassing clouds.17 mph47%30.09 "HgN/A
8:00 AM50 °FPartly sunny.20 mph50%30.07 "HgN/A
7:30 AM50 °FPartly sunny.14 mph54%30.07 "HgN/A
7:00 AM48 °FPartly sunny.9 mph54%30.07 "HgN/A
6:30 AM48 °FPassing clouds.5 mph58%30.04 "HgN/A
6:00 AM48 °FPassing clouds.8 mph62%30.04 "HgN/A
5:30 AM46 °FPassing clouds.1 mph66%30.01 "HgN/A
5:00 AM45 °FPassing clouds.5 mph71%30.01 "HgN/A
4:30 AM48 °FPassing clouds.7 mph62%30.01 "HgN/A
4:00 AM50 °FPassing clouds.10 mph58%30.01 "HgN/A
3:30 AM52 °FPassing clouds.12 mph54%29.98 "HgN/A
3:00 AM52 °FPassing clouds.8 mph54%29.98 "HgN/A
2:30 AM52 °FPassing clouds.6 mph54%29.98 "HgN/A
2:00 AM54 °FPassing clouds.8 mph51%29.98 "HgN/A
1:30 AM52 °FPassing clouds.2 mph54%29.98 "HgN/A
1:00 AM52 °FClear.1 mph54%29.98 "Hg10 mi
12:30 AM52 °FClear.No wind54%29.98 "Hg10 mi
12:00 AM52 °FPassing clouds.No wind54%29.98 "HgN/A
11:30 PM
Mon, Apr 20
54 °FPassing clouds.3 mph51%29.98 "HgN/A
11:00 PM54 °FPassing clouds.6 mph47%29.98 "HgN/A
10:30 PM55 °FPassing clouds.3 mph41%29.98 "HgN/A
10:00 PM55 °FPassing clouds.8 mph41%29.98 "HgN/A
9:30 PM54 °FPassing clouds.6 mph44%29.98 "HgN/A
9:00 PM54 °FPassing clouds.1 mph44%29.98 "HgN/A
8:30 PM54 °FPassing clouds.1 mph44%29.98 "HgN/A
8:00 PM52 °FScattered clouds.2 mph44%29.95 "HgN/A
7:30 PM54 °FScattered clouds.3 mph41%29.95 "HgN/A
7:00 PM57 °FPassing clouds.8 mph36%29.95 "HgN/A
6:30 PM57 °FPassing clouds.15 mph33%29.95 "HgN/A
6:00 PM59 °FPassing clouds.17 mph31%29.95 "HgN/A
5:30 PM59 °FPassing clouds.17 mph31%29.95 "HgN/A
5:00 PM61 °FPassing clouds.16 mph31%29.95 "HgN/A
4:30 PM61 °FPassing clouds.10 mph31%29.95 "HgN/A
4:00 PM61 °FScattered clouds.13 mph31%29.95 "HgN/A
Weather by CustomWeather, © 2015

See weather overviewHow to use our weather pages